Volver al catálogo

STARLINK-5436

ActivoComunicacionesVLEO
NORAD 54795·PAYLOAD·🇺🇸 United States

Lanzado Dec 17, 2022 desde Cape Canaveral Space Force Station

Loading…

Próximos Pases (próximas 24 horas)

TLE

ActualizadoSource: CelesTrak SupGP

Época: Sep 14, 2026, 21:05 UTC

1 54795C 22175AP  26257.87895833  .00041828  00000+0  12358-2 0  2570
2 54795  53.1563 243.9817 0001252  98.7072  39.2214 15.34370230    12

Sigue STARLINK-5436 en tiempo real con AllMySat

Download on the App Store